Location: Unspecified
(0.0000°N, 0.0000°E)
Time: 20:39:50
(UTC+00:00)

Explorer 7 - Pass Details

Date: 17 June 2025
Orbit: 444 x 569 km, 50.3° (Epoch: 12 July)

Event Time Altitude Azimuth Distance (km) Brightness Sun altitude
Rises 00:09:13 0° 329° (NNW) 2,486 - -66.5°
Reaches altitude 10° 00:11:20 10° 332° (NNW) 1,632 - -66.5°
Maximum altitude 00:14:59 62° 54° (NE) 552 - -66.4°
Drops below altitude 10° 00:18:49 10° 135° (SE) 1,714 - -66.2°
Sets 00:21:06 0° 138° (SE) 2,626 - -66.1°
